Middlebury State AP, Middlebu, VT

3:52 PM EST on November 15, 2019 (GMT -0500)
Middlebury State AP, Middlebu

Weather History for K6B0 - August, 2019

Change the Weather History Date:

Friday, August 9, 2019

  Actual Average (WUND) Record (WUND)
Temperature  
Mean Temperature 68 °F -  
Max Temperature 79 °F - - (-1)
Min Temperature 57 °F - - (-1)
Cooling Degree Days 2    
Growing Degree Days 18 (Base 50)    
Moisture  
Dew Point 56 °F    
Average Humidity 72    
Maximum Humidity 96    
Minimum Humidity 37    
Precipitation  
Precipitation 0.02 in - - ()
Sea Level Pressure  
Sea Level Pressure 29.69 in    
Wind  
Wind Speed 4 mph ()    
Max Wind Speed 14 mph    
Max Gust Speed 28 mph    
Visibility 10.0 miles    
Events Rain , Thunderstorm    
Averages and records for this station are not official NWS values.
T = Trace of Precipitation, MM = Missing Value Source: Averaged Metar Reports

Daily Weather History Graph

Daily Weather History Graph

Search for Another Location

Airport or City:

Astronomy

Aug. 09, 2019 Rise Set
Actual Time 5:49 AM EDT 8:05 PM EDT
Civil Twilight 5:17 AM EDT 8:37 PM EDT
Nautical Twilight 4:37 AM EDT 9:17 PM EDT
Astronomical Twilight 3:53 AM EDT 10:01 PM EDT
Moon 3:46 PM EDT (8/9) 12:43 AM EDT (8/9)
Length of Visible Light 15h 20m
Length of Day
14h 16m
Waxing Gibbous, 70% of the Moon is Illuminated
Aug 9
Waxing Gibbous
Aug 15
Full
Aug 23
Last Quarter
Aug 30
New
Sep 5
First Quarter

Hourly Weather History & Observations

Time (EDT) Temp. Dew Point Humidity Pressure Visibility Wind Dir Wind Speed Gust Speed Precip Events Conditions
12:17 AM 65.3 °F 60.1 °F 83% 29.64 in 10.0 mi SE 4.6 mph - N/A   Overcast
12:35 AM 65.1 °F 60.1 °F 84% 29.65 in 10.0 mi South 4.6 mph - N/A   Overcast
12:55 AM 64.9 °F 60.1 °F 84% 29.65 in 10.0 mi Calm Calm - N/A   Overcast
12:56 AM 64.9 °F 60.1 °F 84% 29.65 in 10.0 mi South 3.5 mph - N/A   Overcast
1:15 AM 65.1 °F 59.9 °F 83% 29.65 in 10.0 mi SSE 4.6 mph - N/A   Overcast
1:16 AM 64.9 °F 59.9 °F 84% 29.65 in 10.0 mi SSE 4.6 mph - N/A   Overcast
1:39 AM 64.8 °F 59.9 °F 84% 29.66 in 10.0 mi SSE 3.5 mph - N/A   Overcast
1:57 AM 64.6 °F 59.9 °F 85% 29.66 in 10.0 mi SSE 3.5 mph - N/A   Overcast
2:15 AM 64.4 °F 60.1 °F 86% 29.65 in 10.0 mi SSE 3.5 mph - N/A   Mostly Cloudy
2:35 AM 63.7 °F 59.9 °F 87% 29.66 in 10.0 mi South 4.6 mph - N/A   Scattered Clouds
2:36 AM 63.7 °F 59.7 °F 87% 29.66 in 10.0 mi South 4.6 mph - N/A   Scattered Clouds
2:55 AM 63.7 °F 59.9 °F 87% 29.66 in 10.0 mi SSE 3.5 mph - N/A   Scattered Clouds
2:59 AM 63.5 °F 59.9 °F 88% 29.66 in 10.0 mi SE 3.5 mph - N/A   Scattered Clouds
3:17 AM 64.2 °F 60.3 °F 87% 29.65 in 10.0 mi Calm Calm - N/A   Mostly Cloudy
3:35 AM 63.9 °F 60.1 °F 87% 29.65 in 10.0 mi Calm Calm - N/A Rain Light Rain
3:55 AM 62.6 °F 60.4 °F 93% 29.65 in 10.0 mi Calm Calm - N/A   Mostly Cloudy
3:56 AM 62.6 °F 60.4 °F 93% 29.65 in 10.0 mi SSE 3.5 mph - N/A   Mostly Cloudy
4:15 AM 62.6 °F 60.4 °F 93% 29.65 in 10.0 mi Calm Calm - N/A   Mostly Cloudy
4:16 AM 62.6 °F 60.3 °F 92% 29.65 in 10.0 mi Calm Calm - N/A   Mostly Cloudy
4:38 AM 62.2 °F 60.3 °F 93% 29.66 in 10.0 mi Calm Calm - N/A   Scattered Clouds
4:56 AM 62.1 °F 60.1 °F 93% 29.66 in 10.0 mi SE 3.5 mph - N/A   Mostly Cloudy
5:15 AM 62.4 °F 60.1 °F 92% 29.67 in 10.0 mi Calm Calm - N/A   Scattered Clouds
5:16 AM 62.2 °F 60.1 °F 93% 29.67 in 10.0 mi Calm Calm - N/A   Scattered Clouds
5:35 AM 62.6 °F 61.0 °F 94% 29.68 in 10.0 mi Calm Calm - N/A   Mostly Cloudy
5:55 AM 62.6 °F 60.8 °F 94% 29.68 in 10.0 mi Calm Calm - N/A   Overcast
5:59 AM 62.4 °F 60.8 °F 94% 29.69 in 10.0 mi Calm Calm - N/A   Overcast
6:17 AM 62.1 °F 60.6 °F 95% 29.69 in 10.0 mi Calm Calm - N/A   Mostly Cloudy
6:35 AM 61.7 °F 60.3 °F 95% 29.69 in 10.0 mi Calm Calm - N/A   Scattered Clouds
6:55 AM 61.7 °F 60.4 °F 96% 29.70 in 10.0 mi Calm Calm - N/A   Scattered Clouds
6:56 AM 61.7 °F 60.4 °F 96% 29.70 in 10.0 mi Calm Calm - N/A   Scattered Clouds
7:15 AM 62.2 °F 60.6 °F 94% 29.70 in 10.0 mi SSE 3.5 mph - N/A   Scattered Clouds
7:16 AM 62.2 °F 60.6 °F 94% 29.70 in 10.0 mi SSE 3.5 mph - N/A   Scattered Clouds
7:39 AM 63.0 °F 60.4 °F 91% 29.70 in 10.0 mi South 3.5 mph - N/A   Clear
7:57 AM 65.1 °F 60.4 °F 85% 29.70 in 10.0 mi South 5.8 mph - N/A   Clear
8:15 AM 65.8 °F 60.4 °F 83% 29.71 in 10.0 mi South 3.5 mph - N/A   Scattered Clouds
8:16 AM 66.0 °F 60.8 °F 83% 29.71 in 10.0 mi South 3.5 mph - N/A   Clear
8:35 AM 66.9 °F 60.6 °F 80% 29.71 in 10.0 mi South 5.8 mph - N/A   Clear
8:36 AM 66.9 °F 60.6 °F 80% 29.71 in 10.0 mi South 4.6 mph - N/A   Clear
8:55 AM 68.0 °F 60.4 °F 77% 29.71 in 10.0 mi South 5.8 mph - N/A   Scattered Clouds
8:59 AM 68.0 °F 60.6 °F 77% 29.71 in 10.0 mi South 6.9 mph - N/A   Scattered Clouds
9:17 AM 68.4 °F 60.4 °F 76% 29.70 in 10.0 mi South 8.1 mph - N/A   Scattered Clouds
9:35 AM 69.6 °F 60.4 °F 73% 29.70 in 10.0 mi South 9.2 mph - N/A   Clear
9:55 AM 70.2 °F 60.4 °F 71% 29.70 in 10.0 mi SSW 6.9 mph - N/A   Scattered Clouds
10:15 AM 71.1 °F 59.7 °F 67% 29.70 in 10.0 mi South 9.2 mph - N/A   Mostly Cloudy
10:16 AM 71.2 °F 59.9 °F 67% 29.70 in 10.0 mi SSW 8.1 mph - N/A   Mostly Cloudy
10:38 AM 72.9 °F 60.3 °F 65% 29.70 in 10.0 mi South 6.9 mph - N/A   Mostly Cloudy
10:57 AM 73.9 °F 56.5 °F 54% 29.70 in 10.0 mi WNW 5.8 mph - N/A   Scattered Clouds
11:15 AM 73.0 °F 57.2 °F 57% 29.70 in 10.0 mi WNW 4.6 mph - N/A   Mostly Cloudy
11:16 AM 73.2 °F 57.2 °F 57% 29.70 in 10.0 mi West 4.6 mph - N/A   Mostly Cloudy
11:35 AM 72.9 °F 54.0 °F 51% 29.70 in 10.0 mi WSW 3.5 mph - N/A   Scattered Clouds
11:55 AM 74.8 °F 51.6 °F 44% 29.70 in 10.0 mi West 5.8 mph 16.1 mph N/A   Scattered Clouds
11:59 AM 75.6 °F 52.9 °F 45% 29.70 in 10.0 mi WSW 6.9 mph 16.1 mph N/A   Scattered Clouds
12:17 PM 75.9 °F 54.0 °F 46% 29.69 in 10.0 mi West 5.8 mph - N/A   Scattered Clouds
12:35 PM 76.3 °F 51.8 °F 42% 29.69 in 10.0 mi SW 6.9 mph - N/A   Mostly Cloudy
12:55 PM 76.8 °F 50.7 °F 40% 29.69 in 10.0 mi WSW 6.9 mph - N/A   Mostly Cloudy
12:56 PM 76.6 °F 50.2 °F 39% 29.69 in 10.0 mi SW 6.9 mph - N/A   Mostly Cloudy
1:15 PM 76.3 °F 50.7 °F 41% 29.69 in 10.0 mi SW 5.8 mph - N/A   Scattered Clouds
1:16 PM 76.5 °F 51.1 °F 41% 29.69 in 10.0 mi SSW 4.6 mph - N/A   Scattered Clouds
1:38 PM 77.0 °F 51.3 °F 40% 29.68 in 10.0 mi SSW 8.1 mph 16.1 mph N/A   Scattered Clouds
1:56 PM 77.9 °F 52.5 °F 41% 29.68 in 10.0 mi West 8.1 mph - N/A   Scattered Clouds
2:15 PM 77.2 °F 50.9 °F 40% 29.67 in 10.0 mi SW 5.8 mph - N/A   Clear
2:35 PM 77.9 °F 52.3 °F 41% 29.67 in 10.0 mi SW 6.9 mph - N/A   Scattered Clouds
2:36 PM 77.9 °F 52.0 °F 40% 29.67 in 10.0 mi SW 5.8 mph - N/A   Scattered Clouds
2:55 PM 77.5 °F 52.0 °F 41% 29.67 in 10.0 mi SW 5.8 mph - N/A   Mostly Cloudy
3:17 PM 78.3 °F 49.6 °F 37% 29.66 in 10.0 mi WSW 8.1 mph - N/A   Scattered Clouds
3:35 PM 78.8 °F 50.7 °F 37% 29.66 in 10.0 mi SW 5.8 mph - N/A   Clear
3:55 PM 78.6 °F 50.4 °F 37% 29.66 in 10.0 mi West 5.8 mph - N/A   Clear
3:56 PM 78.6 °F 50.2 °F 37% 29.66 in 10.0 mi WSW 9.2 mph - N/A   Clear
4:15 PM 78.1 °F 50.2 °F 38% 29.66 in 10.0 mi WSW 6.9 mph - N/A   Scattered Clouds
4:16 PM 78.3 °F 50.2 °F 37% 29.66 in 10.0 mi WSW 5.8 mph - N/A   Scattered Clouds
4:37 PM 76.3 °F 50.9 °F 41% 29.67 in 10.0 mi West 8.1 mph - N/A   Scattered Clouds
4:55 PM 77.7 °F 49.5 °F 37% 29.66 in 10.0 mi WSW 6.9 mph - N/A   Scattered Clouds
5:15 PM 77.0 °F 49.8 °F 38% 29.67 in 10.0 mi WSW 5.8 mph - N/A   Clear
5:16 PM 77.0 °F 50.0 °F 39% 29.67 in 10.0 mi WSW 4.6 mph - N/A   Clear
5:35 PM 77.0 °F 50.5 °F 39% 29.67 in 10.0 mi West 6.9 mph - N/A   Clear
5:36 PM 77.0 °F 50.4 °F 39% 29.67 in 10.0 mi West 5.8 mph - N/A   Clear
5:59 PM 76.3 °F 50.0 °F 40% 29.68 in 10.0 mi WNW 4.6 mph - N/A   Clear
6:17 PM 75.0 °F 51.4 °F 44% 29.69 in 10.0 mi West 3.5 mph - N/A   Clear
6:36 PM 72.0 °F 50.7 °F 47% 29.72 in 10.0 mi WNW 13.8 mph 27.6 mph N/A   Mostly Cloudy
6:55 PM 68.4 °F 49.1 °F 50% 29.73 in 10.0 mi NNW 8.1 mph 16.1 mph N/A   Overcast
6:56 PM 68.2 °F 49.1 °F 50% 29.73 in 10.0 mi NNW 8.1 mph 16.1 mph N/A   Overcast
7:18 PM 65.7 °F 51.4 °F 60% 29.74 in 10.0 mi North 6.9 mph - N/A   Drizzle
7:36 PM 63.5 °F 53.6 °F 70% 29.75 in 10.0 mi Calm Calm - N/A Rain Rain
7:56 PM 59.9 °F 57.2 °F 91% 29.75 in 10.0 mi Calm Calm - 0.01 in Rain Light Rain
8:15 PM 60.1 °F 57.7 °F 92% 29.74 in 10.0 mi East 4.6 mph - N/A   Overcast
8:16 PM 59.9 °F 57.6 °F 92% 29.74 in 10.0 mi ESE 3.5 mph - N/A   Overcast
8:35 PM 59.2 °F 57.2 °F 93% 29.74 in 10.0 mi Calm Calm - N/A   Overcast
8:39 PM 59.2 °F 57.4 °F 94% 29.74 in 10.0 mi SE 3.5 mph - N/A   Overcast
9:16 PM 59.0 °F 57.2 °F 94% 29.75 in 10.0 mi Calm Calm - N/A   Mostly Cloudy
9:35 PM 59.4 °F 57.4 °F 93% 29.75 in 10.0 mi East 4.6 mph - N/A   Overcast
9:55 PM 59.2 °F 57.4 °F 94% 29.75 in 10.0 mi Calm Calm - N/A   Overcast
9:56 PM 59.0 °F 57.2 °F 94% 29.75 in 10.0 mi Calm Calm - N/A   Mostly Cloudy
10:18 PM 58.3 °F 56.8 °F 95% 29.74 in 10.0 mi East 3.5 mph - N/A   Mostly Cloudy
10:36 PM 58.1 °F 56.7 °F 95% 29.74 in 10.0 mi Calm Calm - N/A   Mostly Cloudy
10:55 PM 57.7 °F 56.5 °F 96% 29.73 in 10.0 mi Calm Calm - 0.01 in   Scattered Clouds
10:56 PM 57.7 °F 56.5 °F 96% 29.73 in 10.0 mi Calm Calm - 0.01 in   Scattered Clouds
11:15 PM 58.1 °F 56.3 °F 94% 29.73 in 10.0 mi Calm Calm - N/A   Mostly Cloudy
11:16 PM 58.1 °F 56.3 °F 94% 29.73 in 10.0 mi Calm Calm - N/A   Mostly Cloudy
11:38 PM 59.2 °F 56.8 °F 92% 29.74 in 10.0 mi Calm Calm - N/A   Overcast
11:56 PM 59.0 °F 56.8 °F 93% 29.73 in 10.0 mi Calm Calm - N/A Thunderstorm Overcast